Flag for Germany Weather past 2 weeks in Lübeck, Schleswig-Holstein, Germany

Now
68 °F

Clear.


Feels Like: 68 °F
Forecast: 56 / 76 °F
Wind: 7 mph from Southeast

Location: Hamburg-Fuhlsbuettel

Current Time: Aug 4, 2015 at 4:24:27 AM

Latest Report: Aug 4, 2015 at 3:50 AM


Visibility: 10 mi

Pressure: 29.92 "Hg

Humidity: 64%

Dew point: 55 °F

Location of LübeckLocation

Historic Weather in Lübeck — Graph

°F

Lübeck temperature yesterday

Maximum temperature yesterday: 86 °F (at 3:20 PM)
Minimum temperature yesterday: 52 °F (at 5:20 AM)
Average temperature yesterday: 71 °F

Past Weeks' High & Low Weather Summary

 TemperatureHumidityPressure
High86 °F (Aug 3, 3:20 PM)100% (Jul 24, 1:50 AM)30.15 "Hg (Jul 24, 1:50 AM)
Low45 °F (Aug 1, 1:50 AM)33% (Aug 3, 5:50 PM)29.42 "Hg (Jul 25, 1:20 PM)
Average62 °F74%29.83 "Hg
* Reported Jul 20 3:20 AM — Aug 4 3:20 AM, Lübeck, Weather by CustomWeather, © 2015

Note: Actual official high and low records may vary slightly from our data, if they occured in-between our weather recording intervals... More about our weather records

Advertising

Lübeck weather history for previous 24 hours

 ConditionsComfort  
Time TempWeatherWind HumidityBarometerVisibility
3:20 AM
Tue, Aug 4
68 °FClear.8 mph64%29.92 "Hg10 mi
2:50 AM70 °FClear.10 mph60%29.95 "Hg10 mi
2:20 AM70 °FMild.10 mph64%29.95 "HgN/A
1:50 AM72 °FClear.9 mph61%29.95 "Hg10 mi
1:20 AM72 °FClear.9 mph61%29.95 "Hg10 mi
12:50 AM72 °FClear.9 mph61%29.95 "Hg10 mi
12:20 AM72 °FClear.9 mph61%29.95 "Hg10 mi
11:50 PM
Mon, Aug 3
73 °FClear.9 mph57%29.95 "Hg10 mi
11:20 PM75 °FClear.10 mph54%29.95 "Hg10 mi
10:50 PM77 °FClear.9 mph51%29.95 "Hg10 mi
10:20 PM75 °FClear.7 mph54%29.95 "Hg10 mi
9:50 PM75 °FSunny.6 mph54%29.95 "Hg10 mi
9:20 PM79 °FSunny.7 mph48%29.95 "Hg10 mi
8:50 PM81 °FSunny.8 mph45%29.95 "Hg10 mi
8:20 PM82 °FSunny.9 mph40%29.95 "Hg10 mi
7:50 PM84 °FSunny.12 mph37%29.95 "Hg10 mi
7:20 PM86 °FPassing clouds.13 mph33%29.95 "HgN/A
6:50 PM86 °FSunny.15 mph35%29.95 "Hg10 mi
6:20 PM86 °FPassing clouds.10 mph33%29.95 "HgN/A
5:50 PM86 °FPassing clouds.12 mph33%29.98 "HgN/A
5:20 PM86 °FPassing clouds.12 mph35%29.98 "HgN/A
4:50 PM86 °FPassing clouds.13 mph35%29.98 "HgN/A
4:20 PM86 °FPassing clouds.10 mph35%29.98 "HgN/A
3:50 PM86 °FPassing clouds.13 mph35%29.98 "HgN/A
3:20 PM86 °FPassing clouds.12 mph35%30.01 "HgN/A
2:20 PM84 °FPassing clouds.13 mph40%30.01 "HgN/A
1:50 PM82 °FPassing clouds.14 mph40%30.01 "HgN/A
1:20 PM81 °FPassing clouds.14 mph42%30.04 "HgN/A
12:50 PM81 °FSunny.15 mph39%30.04 "Hg10 mi
12:20 PM79 °FSunny.15 mph42%30.04 "Hg10 mi
11:50 AM77 °FSunny.14 mph44%30.07 "Hg10 mi
11:20 AM75 °FPassing clouds.12 mph47%30.07 "HgN/A
10:50 AM73 °FPassing clouds.14 mph47%30.07 "HgN/A
10:20 AM72 °FPassing clouds.12 mph50%30.07 "HgN/A
9:50 AM70 °FSunny.12 mph53%30.07 "Hg10 mi
9:20 AM68 °FSunny.13 mph53%30.09 "Hg10 mi
8:50 AM66 °FPassing clouds.9 mph60%30.09 "HgN/A
8:20 AM63 °FSunny.10 mph68%30.09 "Hg10 mi
7:50 AM61 °FSunny.10 mph72%30.09 "Hg10 mi
7:20 AM61 °FPassing clouds.8 mph72%30.09 "HgN/A
6:50 AM57 °FPassing clouds.7 mph77%30.09 "HgN/A
6:20 AM57 °FPassing clouds.7 mph77%30.09 "HgN/A
5:50 AM54 °FClear.5 mph88%30.09 "Hg10 mi
5:20 AM52 °FClear.5 mph88%30.09 "Hg10 mi
4:50 AM54 °FPassing clouds.3 mph82%30.09 "HgN/A
4:20 AM54 °FClear.5 mph82%30.09 "Hg10 mi
Weather by CustomWeather, © 2015

See weather overviewHow to use our weather pages